CW2751 Weather Reports


Display with metric or nautical units.
time (UTC)temp
F
wind
direction
speed
MPH
gust
MPH
rain 1hr
in
rain 24hr
in
rain mn
in
humidity
%
barometer
mb
20260502221507 74 241 4.0 0.0 0.00 0.00 0.00 18 1010.4
20260502220009 73 258 4.0 0.0 0.00 0.00 0.00 19 1010.7
20260502214517 73 202 4.0 0.0 0.00 0.00 0.00 19 1010.9
20260502213023 72 243 7.0 0.0 0.00 0.00 0.00 19 1011.6
20260502211550 72 237 4.0 0.0 0.00 0.00 0.00 20 1011.5
20260502210051 72 102 5.0 0.0 0.00 0.00 0.00 21 1011.9
20260502204553 71 230 5.0 0.0 0.00 0.00 0.00 20 1012.3
20260502203113 70 246 5.0 0.0 0.00 0.00 0.00 20 1012.8
20260502201532 70 230 4.0 0.0 0.00 0.00 0.00 24 1012.8
20260502200038 69 202 4.0 0.0 0.00 0.00 0.00 24 1013.3
20260502194555 68 198 7.0 0.0 0.00 0.00 0.00 26 1013.2
20260502193017 67 219 5.0 0.0 0.00 0.00 0.00 27 1013.7
20260502191504 66 257 5.0 0.0 0.00 0.00 0.00 28 1014.1
20260502190009 66 192 4.0 0.0 0.00 0.00 0.00 31 1013.7
20260502184534 64 262 6.0 0.0 0.00 0.00 0.00 32 1014.1
20260502183037 64 227 5.0 0.0 0.00 0.00 0.00 33 1014.7
20260502181540 62 233 6.0 0.0 0.00 0.00 0.00 35 1014.9
20260502163023 56 166 5.0 0.0 0.00 0.00 0.00 44 1016.7
20260502161544 55 195 5.0 0.0 0.00 0.00 0.00 47 1017.0
20260502151559 51 172 5.0 0.0 0.00 0.00 0.00 58 1017.5
20260502151502 51 175 5.0 0.0 0.00 0.00 0.00 57 1017.5
20260502123111 34 267 2.0 0.0 0.00 0.00 0.00 86 1017.3
20260502121509 34 255 2.0 0.0 0.00 0.00 0.00 86 1017.5
20260502114525 34 20 1.0 0.0 0.00 0.00 0.00 85 1016.9
20260502113032 34 20 1.0 0.0 0.00 0.00 0.00 85 1016.7
20260502111523 34 20 0.0 0.0 0.00 0.00 0.00 85 1016.6
20260502110036 34 20 0.0 0.0 0.00 0.00 0.00 85 1016.5
20260502104553 34 20 0.0 0.0 0.00 0.00 0.00 84 1016.5
20260502103057 34 20 0.0 0.0 0.00 0.00 0.00 83 1016.6
20260502101506 34 20 0.0 0.0 0.00 0.00 0.00 83 1016.2
20260502091527 35 20 1.0 0.0 0.00 0.00 0.00 80 1016.1
20260502071518 41 199 1.0 0.0 0.00 0.00 0.00 73 1014.9
20260502070012 42 199 2.0 0.0 0.00 0.00 0.00 73 1015.1
20260502064514 42 195 2.0 0.0 0.00 0.00 0.00 72 1015.0
20260502063025 42 169 2.0 0.0 0.00 0.00 0.00 72 1014.9
20260502061526 42 172 2.0 0.0 0.00 0.00 0.00 72 1014.9
20260502060033 42 154 2.0 0.0 0.00 0.00 0.00 72 1014.8
20260502054552 42 166 2.0 0.0 0.00 0.00 0.00 71 1014.8
20260502053021 42 130 2.0 0.0 0.00 0.00 0.00 71 1014.7
20260502051558 43 118 2.0 0.0 0.00 0.00 0.00 70 1014.6
20260502050051 43 113 2.0 0.0 0.00 0.00 0.00 69 1014.9
20260502044623 43 142 2.0 0.0 0.00 0.00 0.00 68 1014.9
20260502044501 43 145 2.0 0.0 0.00 0.00 0.00 68 1014.9
20260502043003 44 94 2.0 0.0 0.00 0.00 0.00 67 1014.8
20260502041504 44 117 2.0 0.0 0.00 0.00 0.00 66 1014.6
20260502040009 45 107 3.0 0.0 0.00 0.00 0.00 64 1014.6
20260502034511 46 99 2.0 0.0 0.00 0.00 0.00 62 1014.4
20260502033027 47 113 3.0 0.0 0.00 0.00 0.00 59 1014.0
20260502031533 47 123 3.0 0.0 0.00 0.00 0.00 55 1013.8
20260502030047 47 93 6.0 0.0 0.00 0.00 0.00 51 1014.4
20260502024539 48 82 5.0 0.0 0.00 0.00 0.00 48 1013.7
20260502023007 50 92 4.0 0.0 0.00 0.00 0.00 44 1013.2
20260502021511 51 107 6.0 0.0 0.00 0.00 0.00 43 1013.0
20260502020039 53 75 6.0 0.0 0.00 0.00 0.00 40 1013.3
20260502014546 55 72 7.0 0.0 0.00 0.00 0.00 35 1012.9
20260502013013 57 107 7.0 0.0 0.00 0.00 0.00 30 1012.1
20260502011521 59 54 6.0 0.0 0.00 0.00 0.00 28 1011.7
20260502010027 60 48 5.0 0.0 0.00 0.00 0.00 28 1012.1
20260502004532 62 18 4.0 0.0 0.00 0.00 0.00 25 1012.0
20260502003051 62 28 5.0 0.0 0.00 0.00 0.00 24 1011.7
20260502001549 64 313 6.0 0.0 0.00 0.00 0.00 23 1011.6
20260502000010 64 357 5.0 0.0 0.00 0.00 0.00 23 1012.2
20260501234505 64 330 8.0 0.0 0.00 0.00 0.00 22 1012.2
20260501233104 64 351 7.0 0.0 0.00 0.00 0.00 23 1012.1
20260501233003 64 351 6.0 0.0 0.00 0.00 0.00 22 1012.1
20260501231512 64 323 7.0 0.0 0.00 0.00 0.00 22 1011.8
20260501230007 64 309 6.0 0.0 0.00 0.00 0.00 22 1011.7
20260501224514 64 347 6.0 0.0 0.00 0.00 0.00 23 1011.8
20260501223044 65 320 6.0 0.0 0.00 0.00 0.00 22 1011.8